Regional Weather Roundup
Issued by NWS Charleston, SC

Current Version | Previous Version | Graphics & Text | Print | Product List | Glossary On
Versions: 1 2 3 4 5 6 7 8 9 10 11 12 13 14 15 16 17 18 19 20 21 22 23 24 25 26 27 28 29 30 31 32 33 34 35 36 37 38 39 40 41 42 43 44 45 46 47 48 49 50
622
ASUS42 KCHS 302227
RWRCHS

REGIONAL WEATHER ROUNDUP
NATIONAL WEATHER SERVICE CHARLESTON SC
600 PM EDT SUN APR 30 2017

NOTE: "FAIR" INDICATES FEW OR NO CLOUDS BELOW 12,000 FEET WITH NO
SIGNIFICANT WEATHER AND/OR OBSTRUCTIONS TO VISIBILITY.

NOT ALL STATIONS ARE QUALITY CONTROLLED. USE DATA WITH CAUTION...
ESPECIALLY DEWPOINT OBSERVATIONS.

SCZ027-030-031-034>040-042>050-302300-
...SOUTHEAST SOUTH CAROLINA...

CITY           SKY/WX    TMP DP  RH WIND       PRES   REMARKS
N CHARLESTON   PTSUNNY   81  68  64 S18G25    30.13F
WATERFRONT PRK   N/A     78  71  79 S16       30.11F
JOHNS ISLAND   CLOUDY    79  72  78 S14G21    30.13F
PINOPOLIS        N/A     82  70  65 S7        30.05F
MONCKS CORNER  FAIR      79  66  65 S10G20    30.12S
SUMMERVILLE    FAIR      79  68  69 S7        30.12F
BEAUFORT MCAS  MOSUNNY   80  72  76 S13G23    30.11F
BEAUFORT ARPT  MOCLDY    79  70  73 S10G18    30.11F HAZE
HILTON HEAD IS MOSUNNY   79  73  83 SE9       30.13F
WALTERBORO     PTCLDY    81  68  65 S10       30.11S
ALLENDALE      FAIR      84  63  48 S12G17    30.07S

...SOUTHERN MIDLANDS AND PEE DEE...

CITY           SKY/WX    TMP DP  RH WIND       PRES   REMARKS
GEORGETOWN     MOCLDY    79  66  65 S13G18    30.15S
KINGSTREE      FAIR      81  63  54 SE9       30.11S
ORANGEBURG     MOSUNNY   84  64  50 S15G23    30.08S
BARNWELL       FAIR      84  66  54 S10       30.07S
AIKEN          FAIR      82  64  54 S10       30.10S
MANNING        FAIR      81  66  61 S20       30.10F
COLUMBIA       MOSUNNY   86  64  47 S18       30.04F
SUMTER         MOSUNNY   84  64  49 S14G22    30.07R
FLORENCE       SUNNY     85  63  47 S12       30.09F
MYRTLE BEACH   MOSUNNY   79  70  73 S15       30.16F
N MYRTLE BEACH SUNNY     78  71  79 S12       30.15F

$$

GAZ063-065-086>088-099>101-113>116-118-119-134>141-150-302300-
...SOUTHEAST GEORGIA...

CITY           SKY/WX    TMP DP  RH WIND       PRES   REMARKS
SAVANNAH ARPT  PTSUNNY   83  66  56 SE22      30.09F
HUNTER AAF     SUNNY     80  75  83 SE12G17   30.08F
FORT STEWART   PTSUNNY   84  68  58 SE14G22   30.06F
STATESBORO     MOSUNNY   84  65  52 SE15      30.07S
SYLVANIA       CLEAR    N/A N/A N/A S10G17    30.09R
CLAXTON        FAIR      83  71  68 E8        30.07R

...CSRA...CENTRAL AND FAR SOUTHEAST GEORGIA...

CITY           SKY/WX    TMP DP  RH WIND       PRES   REMARKS
THOMSON        CLOUDY    84  67  55 SW8       30.09S
AUGUSTA-BUSH   MOSUNNY   86  68  54 SE10G20   30.04S
AUGUSTA-DANIEL MOSUNNY   86  65  49 S12       30.06F
SWAINSBORO     FAIR      86  66  51 SE13      30.05F
VIDALIA        SUNNY     86  68  54 SE13      30.05S
EASTMAN        MOCLDY    88  48  24 S8        30.05S
HAZLEHURST     FAIR      89  63  42 S6        30.03S
ALMA           MOSUNNY   89  67  47 E6        30.04S HX  92
WAYCROSS       MOSUNNY   89  74  61 SE12G17   30.05S HX  97
JESUP          FAIR      82  64  54 SE10G17   30.08S
BAXLEY         FAIR      86  72  62 SE10G17   30.04S HX  92
BRUNSWICK      MOSUNNY   81  72  74 SE16G29   30.10F
SAINT SIMONS   SUNNY     81  71  71 SE15G24   30.09F

$$

SCZ027-028-034-036>038-045-046-048>050-GAZ119-141-302300-
...LAKE AND SUPPLEMENTAL COASTAL OBSERVATIONS...

STATION/POSITION TIME  TEMP    WIND        PRES    WAVE   SWELL
                       AIR SEA DIR/SP/G            HT/PER HT/PER/DIR
                 (UTC) (F)     (DEG/KT/KT) (MB)    (FT/S) (FT/S/D)
WINYAH BAY       2130   79     200/ 12     1021.0S
LAKE MURRAY      2220   81     180/ 10/ 14 1017.3
ACE BASIN NERRS  2130   79     170/  2     1020.0F
FORT PULASKI     2200   79 78  160/ 10/ 15 1020.2
SAPELO ISLAND    2200   82     140/ 10     1019.0

$$

ANZ835-935-AMZ111-154-330-350-352-354-370-450-454-472-302300-
...C-MAN AND BUOY OBSERVATIONS...

STATION/POSITION TIME  TEMP    WIND        PRES    WAVE   SWELL
                       AIR SEA DIR/SP/G            HT/PER HT/PER/DIR
                 (UTC) (F)     (DEG/KT/KT) (MB)    (FT/S) (FT/S/D)
BUOY 41004       2210   77 76  180/ 14/ 16 1020.6
BUOY 41008       2150   76 75  140/ 10/ 14 1019.6F   3/ 6   3/120/ 6
FOLLY BEACH CMAN 2200   77     170/ 13/ 15 1021.3F
CAPERS NEARSHORE 2208   79 76  190/ 12/ 17 1020.4F
FRIPP NEARSHORE  2208   77 78  170/  8/ 12 1019.9F


STATION/POSITION TIME  TEMP    WIND        PRES    WAVE   SWELL
                       AIR SEA DIR/SP/G            HT/PER HT/PER/DIR
                 (UTC) (F)     (DEG/KT/KT) (MB)    (FT/S) (FT/S/D)
5E ST. MARYS GA  2200      76                N/A     4/ 6
FRYING PAN BUOY  2210   76 75  190/ 12/ 16 1021.8
BUOY 41025       2150   78 75  220/ 16/ 17 1022.1R   3/ 5   2/180/ 7
CAPE LOOKOUT NC  2200   76     210/ 10/ 12 1021.8R
BUOY 41002       2150   74 76  160/  8/ 10 1023.6F   3/ 7   3/150/ 7
BUOY 41010       2210   77 77  120/ 12/ 16 1021.0
ST AUGUSTINE FL  2200   76 79  140/ 22/ 25 1019.8R


$$




USA.gov is the U.S. government's official web portal to all federal, state and local government web resources and services.